www.pogodaiklimat.ru

Погода и климат >> Архив погоды >> Египет >> Sallum Plateau


ПОГОДА в Sallum Plateau

  • Прогноз погоды в Sallum Plateau
  • Монитор погоды в Sallum Plateau
  • Климат города

АРХИВ ПОГОДЫ в Sallum Plateau

Время (UTC), дата Ветер
(напр.,м/с)
 
Видим.   Явления Облачность Т
(С)
Тd
(С)
f
(%)
Тe
(С)
Тes
(С)
Комфортность P
(гПа)
Po
(гПа)
Тmin
(С)
Tmax
(С)
R
(мм)
R24
(мм)
S
(см)
06 15.10 Ю 4 10 км ясно +20.7 +17.0 79 +24 +26 комфорт 1016.4 1016.0 +18.9
09 15.10 ЮЗ 2 10 км ясно +26.1 +11.6 40 +27 +38 жарко 1017.7 1018.0
12 15.10 СВ 4 10 км 5/0
[Ci]
+26.6 +14.2 46 +29 +35 жарко 1016.5 1017.0
15 15.10 В 5 10 км 4/0
[Ac trans]
+24.4 +14.7 55 +27 +27 жарко 1016.5 1017.0
21 15.10 ЮВ 4 10 км ясно +21.4 +17.5 78 +25 +25 комфорт 1017.5 1018.0
00 16.10 ЮВ 4 10 км ясно +21.0 +17.1 78 +25 +25 комфорт 1019.0 1019.0
03 16.10 штиль 0 10 км ясно +18.9 +15.6 81 +20 +20 1016.4 1016.0
06 16.10 Ю 2 10 км ясно +20.9 +16.1 74 +25 +26 комфорт 1017.4 1017.0 +17.8
12 16.10 СВ 4 10 км ясно +26.2 +13.2 45 +28 +34 жарко 1016.7 1017.0
15 16.10 В 5 10 км ясно +24.9 +17.4 63 +29 +29 душно 1016.3 1016.0
18 16.10 В 5 10 км ясно +22.8 +18.6 77 +29 +29 очень
душно
1016.8 1017.0 +26.7
21 16.10 ЮВ 4 10 км ясно +21.6 +18.7 84 +26 +26 душно 1016.7 1017.0
00 17.10 ЮВ 3 10 км ясно +20.8 +18.3 86 +25 +25 комфорт 1015.5 1016.0
06 17.10 Ю 1 10 км ясно +21.0 +17.0 78 +26 +28 душно 1016.0 1016.0 +18.6
09 17.10 ЮВ 2 10 км ясно +24.8 +15.1 55 +28 +38 жарко 1016.0 1016.0
12 17.10 В 3 10 км ясно +26.6 +15.2 50 +29 +37 жарко 1014.2 1014.0
15 17.10 В 5 10 км ясно +24.9 +17.6 64 +29 +29 душно 1013.2 1013.0
18 17.10 В 1 10 км ясно +22.9 +19.0 79 +29 +29 очень
душно
1013.9 1014.0 +26.9
21 17.10 ЮВ 6 10 км ясно +21.9 +18.9 83 +27 +27 душно 1014.2 1014.0
00 18.10 ЮВ 4 10 км ясно +21.0 +17.9 82 +25 +25 комфорт 1013.1 1013.0
03 18.10 Ю 3 10 км ясно +19.7 +16.6 82 +22 +22 комфорт 1012.2 1012.0
06 18.10 ЮВ 3 10 км ясно +21.1 +16.2 74 +24 +26 комфорт 1013.2 1013.0 +19.2
09 18.10 ЮВ 3 10 км ясно +24.5 +16.6 61 +28 +36 душно 1014.1 1014.0
12 18.10 В 5 10 км 3/0
[Ci sp]
+26.1 +18.4 63 +31 +35 очень
душно
1012.2 1012.0
15 18.10 В 7 10 км ясно +24.9 +18.9 69 +30 +30 душно 1011.8 1012.0
18 18.10 В 7 10 км ясно +23.6 +18.4 73 +28 +28 душно 1011.8 1012.0 +27.1
21 18.10 В 5 10 км ясно +22.6 +17.4 72 +27 +27 душно 1011.9 1012.0
00 19.10 В 4 10 км ясно +21.8 +17.2 75 +26 +26 душно 1011.8 1012.0
03 19.10 В 4 10 км ясно +20.8 +16.8 78 +25 +25 комфорт 1012.2 1012.0
06 19.10 ЮВ 3 10 км 5/0
[Ci fib]
+20.7 +16.8 78 +24 +25 комфорт 1013.6 1014.0 +20.0
09 19.10 В 3 10 км 5/3 600 м
[Sc Ac As]
+25.4 +16.2 57 +29 +33 душно 1013.9 1014.0
12 19.10 ЮВ 5 10 км 8/4 600 м
[Sc As op]
+28.1 +13.0 39 +30 +31 жарко 1012.2 1012.0
15 19.10 ЮВ 7 10 км в посл. час дождь 8/4 600 м
[Sc As op]
+27.1 +16.1 51 +30 +30 душно 1010.6 1011.0 0.1
18 19.10 В 7 10 км в посл. час дождь 6/6 600 м
[Sc]
+24.0 +20.8 82 +30 +30 очень
душно
1011.8 1012.0 +28.5 0.2
21 19.10 В 5 10 км 6/3 600 м
[Sc Ac lent]
+23.5 +19.5 78 +29 +29 душно 1012.7 1013.0
00 20.10 В 5 10 км 6/0
[Ac lent]
+22.2 +17.8 76 +27 +27 душно 1012.0 1012.0
03 20.10 ЮВ 5 10 км 3/3 600 м
[Sc]
+21.7 +16.6 73 +26 +26 душно 1012.1 1012.0
06 20.10 ЮВ 5 10 км 6/6 600 м
[Sc]
+21.3 +16.3 73 +25 +25 комфорт 1012.5 1013.0 +20.7 0.2
09 20.10 ЮВ 6 10 км 5/0
[Ac cast]
+25.5 +14.9 52 +28 +31 жарко 1012.4 1012.0
12 20.10 СВ 9 10 км 4/0
[Ac cast]
+26.3 +20.6 71 +33 +34 очень
душно
1011.7 1012.0
15 20.10 СВ 9 10 км 4/1 600 м
[Sc Ac cast]
+24.2 +20.7 81 +30 +30 очень
душно
1011.1 1011.0
18 20.10 В 7 10 км 6/6 600 м
[Sc]
+23.4 +20.8 85 +31 +31 очень
душно
1012.5 1013.0 +29.5
21 20.10 В 7 10 км 4/4 600 м
[Sc]
+22.9 +20.4 86 +30 +30 очень
душно
1012.5 1013.0
00 21.10 В 6 10 км 4/4 600 м
[Sc]
+22.6 +20.5 88 +29 +29 очень
душно
1011.6 1012.0
03 21.10 СВ 7 10 км 4/4 600 м
[Sc]
+22.3 +19.2 83 +28 +28 душно 1011.1 1011.0
09 21.10 В 9 10 км 5/5 600 м
[Sc]
+24.8 +18.6 68 +29 +30 душно 1012.6 1013.0
12 21.10 В 8 10 км 5/5 600 м
[Sc]
+25.5 +19.0 67 +30 +31 душно 1012.1 1012.0
15 21.10 В 8 10 км 5/5 600 м
[Sc]
+23.8 +18.3 71 +28 +28 душно 1011.3 1011.0
21 21.10 СВ 7 10 км 5/5 600 м
[Sc]
+22.5 +18.8 80 +28 +28 душно 1012.8 1013.0
00 22.10 В 7 10 км 6/6 600 м
[Cu Sc]
+22.4 +18.3 78 +28 +28 душно 1012.4 1012.0
03 22.10 СВ 7 10 км 6/6 600 м
[Cu Sc]
+22.3 +18.2 78 +27 +27 душно 1011.8 1012.0

 

Местоположение метеостанции Sallum Plateau (Египет): широта 31.57 долгота 25.13 высота над уровнем моря 6 м.

В архиве по умолчанию представлена погода в Sallum Plateau за последнюю неделю. Архивные данные за месяц целиком и за предыдущие месяцы, начиная с января 2011 года, Вы можете получить, выбрав интересующий диапазон дат из раскрывающегося списка и нажав кнопку "Ввод!".


*Определитесь, кто Вы:
робот инопланетянин человек

Внимание! Время в таблицах - всемирное. Для получения местного времени необходимо прибавить поправку, которая в Sallum Plateau равна 2 ч.

Смотрите также архив погоды в соседних городах и на ближайших метеорологических станциях:

Погода в Mersa Matruh (Египет) (200 км)
Погода в Siwa (Египет) (264 км)
Погода в Dabaa (Египет) (325 км)
Погода в Kasteli (Греция) (402 км)
Погода в Sitia (Греция) (414 км)
Погода в Al-Marj (Ливия) (414 км)
Погода в Heraklion (Греция) (418 км)
Погода в Jalo (Ливия) (443 км)
Погода в Souda (Греция) (445 км)
Погода в Alexandria (Египет) (459 км)

Пояснения к столбцам:

Ветер - указаны скорость ветра в м/с - средняя за 10 мин, порывы в срок и между сроками (в фигурных скобках) и направление, откуда дует ветер: С - северный, СВ - северо-восточный, В - восточный, ЮВ - юго-восточный, Ю - южный, ЮЗ - юго-западный, З - западный, СЗ - северо-западный.
Видимость - горизонтальная дальность видимости в метрах или километрах. При видимости от 1 до 10 км при отсутствии осадков обычно наблюдается дымка, при ухудшении видимости до 1 км и менее - туман. В сухую погоду видимость может ухудшаться дымом, пылью или мглою.
Явления - указаны атмосферные явления, наблюдавшиеся в срок или в последний час перед сроком; фигурными скобками обозначены явления, наблюдавшиеся между сроками (за 1-3 часа до срока); квадратными скобками обозначены град или гололедные отложения с указанием их диаметра в мм.
Облачность - указаны через наклонную черту общая и нижняя облачность в баллах и высота нижней границы облаков в метрах; квадратными скобками обозначены формы облаков: Ci - перистые, Cs - перисто-слоистые, Cc - перисто-кучевые, Ac - высококучевые, As - высокослоистые, Sc - слоисто-кучевые, Ns - слоисто-дождевые, Cu - кучевые, Cb - кучево-дождевые. Подробнее классификацию облаков см. в Атласе облаков (PDF).
T - Температура воздуха - температура, измеренная на высоте 2 м над землей.
Td - Температура точки росы - температура, при понижении до которой содержащийся в воздухе водяной пар достигнет насыщения.
f - Относительная влажность воздуха - влажноcть воздуха, измеренная на высоте 2 м над землей.
Te - Эффективная температура - температура, которую ощущает одетый по сезону человек в тени. Характеристика душности погоды. При расчете учитывается влияние влажности воздуха и скорости ветра на теплоощущения человека.
Tes - Эффективная температура на солнце - температура, которую ощущает человек, с поправкой на солнечный нагрев. Характеристика знойности погоды. Зависит от высоты солнца над горизонтом, облачности и скорости ветра. Ночью, в пасмурную погоду, а также при ветре 12 м/с и более поправка равна нулю.
P - Атмосферное давление - приведенное к уровню моря атмосферное давление.
Po - Атмосферное давление - измеренное на уровне метеостанции атмосферное давление.
Tmin - Минимальная температура - минимум температуры воздуха на высоте 2 м над землей.
Tmax - Максимальная температура - максимум температуры воздуха на высоте 2 м над землей.
R - Количество осадков - Количество выпавших осадков за период времени, мм. При наведении курсора мыши на число - период времени, за который выпало указанное количество осадков.
R24 - Количество осадков - Количество выпавших осадков за 24 часа, мм.
S - Снежный покров - Высота снежного покрова, см. При наведении курсора мыши на число - состояние снежного покрова и степень покрытия местности в баллах.